Location: Unspecified
(51.6411°N, 0.0000°E)
Time: 04:48:25
(UTC+00:00)

OBJECT D - Visible Passes

Search period start: 04 April 2026 00:00
Search period end: 14 April 2026 00:00
Orbit: 849 x 853 km, 86.0° (Epoch: 29 March)

Date Brightness Start Highest point End Pass type
(mag) Time Alt. Az. Time Alt. Az. Time Alt. Az.
4 Apr ? 02:26:07 10° NNE 02:30:31 23° ENE 02:34:52 10° ESE visible
4 Apr ? 04:07:49 10° N 04:13:23 68° W 04:18:56 10° S visible
5 Apr ? 02:14:26 10° NNE 02:18:36 21° ENE 02:22:45 10° ESE visible
5 Apr ? 03:55:59 10° N 04:01:35 75° W 04:07:10 10° S visible
6 Apr ? 02:02:47 10° NNE 02:06:41 19° ENE 02:10:36 10° ESE visible
6 Apr ? 03:44:09 10° N 03:49:47 83° W 03:55:23 10° S visible
7 Apr ? 01:51:09 10° NNE 01:54:47 17° ENE 01:58:23 10° ESE visible
7 Apr ? 03:32:19 10° N 03:37:58 89° E 03:43:35 10° S visible
8 Apr ? 01:39:33 10° NNE 01:42:51 16° ENE 01:46:08 10° E visible
8 Apr ? 03:20:30 10° N 03:26:10 81° E 03:31:46 10° S visible
9 Apr ? 01:28:00 10° NNE 01:30:55 14° ENE 01:33:50 10° E visible
9 Apr ? 03:08:42 10° N 03:14:20 73° E 03:19:55 10° S visible
10 Apr ? 01:16:31 10° NE 01:18:58 13° ENE 01:21:25 10° E visible
10 Apr ? 02:56:53 10° N 03:02:30 66° E 03:08:04 10° SSE visible
10 Apr ? 04:40:03 10° NNW 04:44:19 23° WNW 04:48:35 10° SW visible
11 Apr ? 01:05:11 10° NE 01:07:02 11° ENE 01:08:52 10° ENE visible
11 Apr ? 02:45:05 10° N 02:50:40 60° E 02:56:11 10° SSE visible
11 Apr ? 04:28:05 10° NNW 04:32:34 25° WNW 04:37:03 10° SW visible
12 Apr ? 00:54:14 10° NE 00:55:04 10° ENE 00:55:54 10° ENE visible
12 Apr ? 02:33:18 10° N 02:38:49 54° E 02:44:17 10° SSE visible
12 Apr ? 04:16:09 10° NNW 04:20:50 28° W 04:25:29 10° SW visible
13 Apr ? 02:21:30 10° N 02:26:58 48° E 02:32:22 10° SSE visible
13 Apr ? 04:04:14 10° NNW 04:09:04 31° W 04:13:54 10° SW visible
